Location: Newark
(48.8604°N, 2.3376°E)
Time: 08:20:57
(UTC+00:00)

Envisat - Pass Details

Date: 05 October 2021
Orbit: 764 x 766 km, 98.2° (Epoch: 22 October)

Event Time Altitude Azimuth Distance (km) Brightness Sun altitude
Rises 04:23:51 0° 20° (NNE) 3,243 6.7 -15.9°
Reaches altitude 10° 04:26:21 10° 29° (NNE) 2,312 6.0 -15.5°
Maximum altitude 04:31:03 36° 96° (E) 1,197 4.7 -14.8°
Drops below altitude 10° 04:35:41 10° 163° (SSE) 2,295 5.6 -14.0°
Sets 04:38:09 0° 172° (S) 3,216 6.2 -13.6°
